Year,Month,Day,Hour,Minute,Value (Times are PST for temperature in C)
2017,08,02,00,00,18.00
2017,08,02,00,01,18.00
2017,08,02,00,02,18.00
2017,08,02,00,03,18.00
2017,08,02,00,04,18.00
2017,08,02,00,05,17.90
2017,08,02,00,06,17.90
2017,08,02,00,07,17.90
2017,08,02,00,08,17.90
2017,08,02,00,09,17.90
2017,08,02,00,10,17.90
2017,08,02,00,11,17.90
2017,08,02,00,12,17.90
2017,08,02,00,13,17.90
2017,08,02,00,14,17.90
2017,08,02,00,15,17.80
2017,08,02,00,16,17.80
2017,08,02,00,17,17.80
2017,08,02,00,18,17.80
2017,08,02,00,19,17.80
2017,08,02,00,20,17.80
2017,08,02,00,21,17.80
2017,08,02,00,22,17.80
2017,08,02,00,23,17.80
2017,08,02,00,24,17.80
2017,08,02,00,25,17.70
2017,08,02,00,26,17.70
2017,08,02,00,27,17.70
2017,08,02,00,28,17.70
2017,08,02,00,29,17.70
2017,08,02,00,30,17.70
2017,08,02,00,31,17.70
2017,08,02,00,32,17.70
2017,08,02,00,33,17.70
2017,08,02,00,34,17.70
2017,08,02,00,35,17.70
2017,08,02,00,36,17.70
2017,08,02,00,37,17.70
2017,08,02,00,38,17.70
2017,08,02,00,39,17.70
2017,08,02,00,40,17.60
2017,08,02,00,41,17.60
2017,08,02,00,42,17.60
2017,08,02,00,43,17.60
2017,08,02,00,44,17.60
2017,08,02,00,45,17.60
2017,08,02,00,46,17.60
2017,08,02,00,47,17.60
2017,08,02,00,48,17.50
2017,08,02,00,49,17.50
2017,08,02,00,50,17.50
2017,08,02,00,51,17.50
2017,08,02,00,52,17.40
2017,08,02,00,53,17.40
2017,08,02,00,54,17.40
2017,08,02,00,55,17.40
2017,08,02,00,56,17.40
2017,08,02,00,57,17.40
2017,08,02,00,58,17.40
2017,08,02,00,59,17.40
2017,08,02,01,00,17.40
2017,08,02,01,01,17.40
2017,08,02,01,02,17.40
2017,08,02,01,03,17.40
2017,08,02,01,04,17.40
2017,08,02,01,05,17.40
2017,08,02,01,06,17.40
2017,08,02,01,07,17.40
2017,08,02,01,08,17.40
2017,08,02,01,09,17.40
2017,08,02,01,10,17.40
2017,08,02,01,11,17.40
2017,08,02,01,12,17.40
2017,08,02,01,13,17.40
2017,08,02,01,14,17.40
2017,08,02,01,15,17.30
2017,08,02,01,16,17.30
2017,08,02,01,17,17.30
2017,08,02,01,18,17.30
2017,08,02,01,19,17.30
2017,08,02,01,20,17.30
2017,08,02,01,21,17.30
2017,08,02,01,22,17.30
2017,08,02,01,23,17.30
2017,08,02,01,24,17.30
2017,08,02,01,25,17.30
2017,08,02,01,26,17.30
2017,08,02,01,27,17.20
2017,08,02,01,28,17.20
2017,08,02,01,29,17.20
2017,08,02,01,30,17.20
2017,08,02,01,31,17.20
2017,08,02,01,32,17.20
2017,08,02,01,33,17.10
2017,08,02,01,34,17.10
2017,08,02,01,35,17.10
2017,08,02,01,36,17.10
2017,08,02,01,37,17.10
2017,08,02,01,38,17.10
2017,08,02,01,39,17.10
2017,08,02,01,40,17.00
2017,08,02,01,41,17.00
2017,08,02,01,42,17.00
2017,08,02,01,43,17.00
2017,08,02,01,44,17.00
2017,08,02,01,45,16.90
2017,08,02,01,46,16.90
2017,08,02,01,47,16.90
2017,08,02,01,48,16.90
2017,08,02,01,49,16.90
2017,08,02,01,50,16.90
2017,08,02,01,51,16.90
2017,08,02,01,52,16.80
2017,08,02,01,53,16.80
2017,08,02,01,54,16.80
2017,08,02,01,55,16.80
2017,08,02,01,56,16.80
2017,08,02,01,57,16.80
2017,08,02,01,58,16.80
2017,08,02,01,59,16.80
2017,08,02,02,00,16.70
2017,08,02,02,01,16.70
2017,08,02,02,02,16.70
2017,08,02,02,03,16.70
2017,08,02,02,04,16.70
2017,08,02,02,05,16.70
2017,08,02,02,06,16.70
2017,08,02,02,07,16.70
2017,08,02,02,08,16.70
2017,08,02,02,09,16.70
2017,08,02,02,10,16.70
2017,08,02,02,11,16.70
2017,08,02,02,12,16.60
2017,08,02,02,13,16.60
2017,08,02,02,14,16.60
2017,08,02,02,15,16.60
2017,08,02,02,16,16.60
2017,08,02,02,17,16.60
2017,08,02,02,18,16.60
2017,08,02,02,19,16.60
2017,08,02,02,20,16.60
2017,08,02,02,21,16.60
2017,08,02,02,22,16.60
2017,08,02,02,23,16.50
2017,08,02,02,24,16.50
2017,08,02,02,25,16.50
2017,08,02,02,26,16.50
2017,08,02,02,27,16.50
2017,08,02,02,28,16.50
2017,08,02,02,29,16.50
2017,08,02,02,30,16.40
2017,08,02,02,31,16.40
2017,08,02,02,32,16.40
2017,08,02,02,33,16.40
2017,08,02,02,34,16.40
2017,08,02,02,35,16.40
2017,08,02,02,36,16.40
2017,08,02,02,37,16.40
2017,08,02,02,38,16.40
2017,08,02,02,39,16.40
2017,08,02,02,40,16.40
2017,08,02,02,41,16.40
2017,08,02,02,42,16.40
2017,08,02,02,43,16.40
2017,08,02,02,44,16.40
2017,08,02,02,45,16.40
2017,08,02,02,46,16.40
2017,08,02,02,47,16.40
2017,08,02,02,48,16.40
2017,08,02,02,49,16.40
2017,08,02,02,50,16.40
2017,08,02,02,51,16.40
2017,08,02,02,52,16.40
2017,08,02,02,53,16.30
2017,08,02,02,54,16.30
2017,08,02,02,55,16.30
2017,08,02,02,56,16.30
2017,08,02,02,57,16.30
2017,08,02,02,58,16.30
2017,08,02,02,59,16.30
2017,08,02,03,00,16.30
2017,08,02,03,01,16.30
2017,08,02,03,02,16.30
2017,08,02,03,03,16.30
2017,08,02,03,04,16.30
2017,08,02,03,05,16.30
2017,08,02,03,06,16.30
2017,08,02,03,07,16.30
2017,08,02,03,08,16.30
2017,08,02,03,09,16.30
2017,08,02,03,10,16.30
2017,08,02,03,11,16.30
2017,08,02,03,12,16.30
2017,08,02,03,13,16.30
2017,08,02,03,14,16.30
2017,08,02,03,15,16.30
2017,08,02,03,16,16.30
2017,08,02,03,17,16.30
2017,08,02,03,18,16.30
2017,08,02,03,19,16.30
2017,08,02,03,20,16.30
2017,08,02,03,21,16.30
2017,08,02,03,22,16.30
2017,08,02,03,23,16.30
2017,08,02,03,24,16.30
2017,08,02,03,25,16.30
2017,08,02,03,26,16.30
2017,08,02,03,27,16.30
2017,08,02,03,28,16.30
2017,08,02,03,29,16.30
2017,08,02,03,30,16.30
2017,08,02,03,31,16.40
2017,08,02,03,32,16.40
2017,08,02,03,33,16.40
2017,08,02,03,34,16.40
2017,08,02,03,35,16.40
2017,08,02,03,36,16.40
2017,08,02,03,37,16.40
2017,08,02,03,38,16.40
2017,08,02,03,39,16.40
2017,08,02,03,40,16.40
2017,08,02,03,41,16.50
2017,08,02,03,42,16.50
2017,08,02,03,43,16.50
2017,08,02,03,44,16.50
2017,08,02,03,45,16.50
2017,08,02,03,46,16.50
2017,08,02,03,47,16.50
2017,08,02,03,48,16.60
2017,08,02,03,49,16.60
2017,08,02,03,50,16.60
2017,08,02,03,51,16.60
2017,08,02,03,52,16.60
2017,08,02,03,53,16.60
2017,08,02,03,54,16.60
2017,08,02,03,55,16.60
2017,08,02,03,56,16.60
2017,08,02,03,57,16.60
2017,08,02,03,58,16.60
2017,08,02,03,59,16.60
2017,08,02,04,00,16.60
2017,08,02,04,01,16.60
2017,08,02,04,02,16.60
2017,08,02,04,03,16.60
2017,08,02,04,04,16.70
2017,08,02,04,05,16.70
2017,08,02,04,06,16.70
2017,08,02,04,07,16.70
2017,08,02,04,08,16.70
2017,08,02,04,09,16.70
2017,08,02,04,10,16.70
2017,08,02,04,11,16.70
2017,08,02,04,12,16.70
2017,08,02,04,13,16.70
2017,08,02,04,14,16.80
2017,08,02,04,15,16.80
2017,08,02,04,16,16.80
2017,08,02,04,17,16.70
2017,08,02,04,18,16.70
2017,08,02,04,19,16.70
2017,08,02,04,20,16.70
2017,08,02,04,21,16.60
2017,08,02,04,22,16.60
2017,08,02,04,23,16.60
2017,08,02,04,24,16.60
2017,08,02,04,25,16.60
2017,08,02,04,26,16.60
2017,08,02,04,27,16.60
2017,08,02,04,28,16.60
2017,08,02,04,29,16.50
2017,08,02,04,30,16.50
2017,08,02,04,31,16.50
2017,08,02,04,32,16.50
2017,08,02,04,33,16.50
2017,08,02,04,34,16.40
2017,08,02,04,35,16.40
2017,08,02,04,36,16.40
2017,08,02,04,37,16.40
2017,08,02,04,38,16.40
2017,08,02,04,39,16.40
2017,08,02,04,40,16.40
2017,08,02,04,41,16.40
2017,08,02,04,42,16.40
2017,08,02,04,43,16.40
2017,08,02,04,44,16.40
2017,08,02,04,45,16.40
2017,08,02,04,46,16.40
2017,08,02,04,47,16.40
2017,08,02,04,48,16.40
2017,08,02,04,49,16.30
2017,08,02,04,50,16.30
2017,08,02,04,51,16.30
2017,08,02,04,52,16.30
2017,08,02,04,53,16.30
2017,08,02,04,54,16.30
2017,08,02,04,55,16.30
2017,08,02,04,56,16.30
2017,08,02,04,57,16.30
2017,08,02,04,58,16.20
2017,08,02,04,59,16.20
2017,08,02,05,00,16.20
2017,08,02,05,01,16.20
2017,08,02,05,02,16.20
2017,08,02,05,03,16.20
2017,08,02,05,04,16.20
2017,08,02,05,05,16.10
2017,08,02,05,06,16.10
2017,08,02,05,07,16.10
2017,08,02,05,08,16.10
2017,08,02,05,09,16.10
2017,08,02,05,10,16.10
2017,08,02,05,11,16.10
2017,08,02,05,12,16.10
2017,08,02,05,13,16.10
2017,08,02,05,14,16.10
2017,08,02,05,15,16.10
2017,08,02,05,16,16.10
2017,08,02,05,17,16.10
2017,08,02,05,18,16.10
2017,08,02,05,19,16.10
2017,08,02,05,20,16.10
2017,08,02,05,21,16.10
2017,08,02,05,22,16.00
2017,08,02,05,23,16.00
2017,08,02,05,24,16.00
2017,08,02,05,25,16.00
2017,08,02,05,26,16.00
2017,08,02,05,27,16.00
2017,08,02,05,28,16.00
2017,08,02,05,29,16.00
2017,08,02,05,30,16.00
2017,08,02,05,31,16.00
2017,08,02,05,32,16.00
2017,08,02,05,33,15.90
2017,08,02,05,34,15.90
2017,08,02,05,35,15.90
2017,08,02,05,36,15.90
2017,08,02,05,37,15.90
2017,08,02,05,38,15.90
2017,08,02,05,39,15.90
2017,08,02,05,40,15.90
2017,08,02,05,41,15.90
2017,08,02,05,42,15.90
2017,08,02,05,43,15.90
2017,08,02,05,44,15.90
2017,08,02,05,45,15.90
2017,08,02,05,46,15.90
2017,08,02,05,47,15.80
2017,08,02,05,48,15.80
2017,08,02,05,49,15.80
2017,08,02,05,50,15.80
2017,08,02,05,51,15.80
2017,08,02,05,52,15.80
2017,08,02,05,53,15.80
2017,08,02,05,54,15.80
2017,08,02,05,55,15.80
2017,08,02,05,56,15.80
2017,08,02,05,57,15.80
2017,08,02,05,58,15.80
2017,08,02,05,59,15.80
2017,08,02,06,00,15.80
2017,08,02,06,01,15.80
2017,08,02,06,02,15.80
2017,08,02,06,03,15.80
2017,08,02,06,04,15.80
2017,08,02,06,05,15.80
2017,08,02,06,06,15.80
2017,08,02,06,07,15.80
2017,08,02,06,08,15.80
2017,08,02,06,09,15.80
2017,08,02,06,10,15.80
2017,08,02,06,11,15.80
2017,08,02,06,12,15.80
2017,08,02,06,13,15.80
2017,08,02,06,14,15.80
2017,08,02,06,15,15.80
2017,08,02,06,16,15.80
2017,08,02,06,17,15.80
2017,08,02,06,18,15.80
2017,08,02,06,19,15.80
2017,08,02,06,20,15.80
2017,08,02,06,21,15.80
2017,08,02,06,22,15.70
2017,08,02,06,23,15.80
2017,08,02,06,24,15.80
2017,08,02,06,25,15.80
2017,08,02,06,26,15.70
2017,08,02,06,27,15.80
2017,08,02,06,28,15.70
2017,08,02,06,29,15.70
2017,08,02,06,30,15.70
2017,08,02,06,31,15.70
2017,08,02,06,32,15.70
2017,08,02,06,33,15.70
2017,08,02,06,34,15.70
2017,08,02,06,35,15.70
2017,08,02,06,36,15.70
2017,08,02,06,37,15.70
2017,08,02,06,38,15.70
2017,08,02,06,39,15.70
2017,08,02,06,40,15.70
2017,08,02,06,41,15.70
2017,08,02,06,42,15.70
2017,08,02,06,43,15.70
2017,08,02,06,44,15.70
2017,08,02,06,45,15.70
2017,08,02,06,46,15.70
2017,08,02,06,47,15.70
2017,08,02,06,48,15.70
2017,08,02,06,49,15.70
2017,08,02,06,50,15.70
2017,08,02,06,51,15.70
2017,08,02,06,52,15.70
2017,08,02,06,53,15.70
2017,08,02,06,54,15.80
2017,08,02,06,55,15.80
2017,08,02,06,56,15.80
2017,08,02,06,57,15.80
2017,08,02,06,58,15.80
2017,08,02,06,59,15.80
2017,08,02,07,00,15.80
2017,08,02,07,01,15.80
2017,08,02,07,02,15.80
2017,08,02,07,03,15.80
2017,08,02,07,04,15.80
2017,08,02,07,05,15.80
2017,08,02,07,06,15.80
2017,08,02,07,07,15.80
2017,08,02,07,08,15.80
2017,08,02,07,09,15.80
2017,08,02,07,10,15.80
2017,08,02,07,11,15.90
2017,08,02,07,12,15.90
2017,08,02,07,13,15.90
2017,08,02,07,14,15.90
2017,08,02,07,15,15.90
2017,08,02,07,16,15.90
2017,08,02,07,17,15.90
2017,08,02,07,18,16.00
2017,08,02,07,19,16.00
2017,08,02,07,20,16.00
2017,08,02,07,21,16.00
2017,08,02,07,22,16.00
2017,08,02,07,23,16.10
2017,08,02,07,24,16.10
2017,08,02,07,25,16.10
2017,08,02,07,26,16.10
2017,08,02,07,27,16.10
2017,08,02,07,28,16.10
2017,08,02,07,29,16.20
2017,08,02,07,30,16.20
2017,08,02,07,31,16.20
2017,08,02,07,32,16.20
2017,08,02,07,33,16.30
2017,08,02,07,34,16.30
2017,08,02,07,35,16.30
2017,08,02,07,36,16.30
2017,08,02,07,37,16.40
2017,08,02,07,38,16.40
2017,08,02,07,39,16.40
2017,08,02,07,40,16.50
2017,08,02,07,41,16.50
2017,08,02,07,42,16.50
2017,08,02,07,43,16.60
2017,08,02,07,44,16.60
2017,08,02,07,45,16.60
2017,08,02,07,46,16.70
2017,08,02,07,47,16.70
2017,08,02,07,48,16.70
2017,08,02,07,49,16.80
2017,08,02,07,50,16.80
2017,08,02,07,51,16.80
2017,08,02,07,52,16.90
2017,08,02,07,53,16.90
2017,08,02,07,54,16.90
2017,08,02,07,55,17.00
2017,08,02,07,56,17.10
2017,08,02,07,57,17.10
2017,08,02,07,58,17.20
2017,08,02,07,59,17.20
2017,08,02,08,00,17.30
2017,08,02,08,01,17.40
2017,08,02,08,02,17.40
2017,08,02,08,03,17.40
2017,08,02,08,04,17.50
2017,08,02,08,05,17.50
2017,08,02,08,06,17.60
2017,08,02,08,07,17.60
2017,08,02,08,08,17.70
2017,08,02,08,09,17.70
2017,08,02,08,10,17.70
2017,08,02,08,11,17.80
2017,08,02,08,12,17.80
2017,08,02,08,13,17.90
2017,08,02,08,14,17.90
2017,08,02,08,15,18.00
2017,08,02,08,16,18.00
2017,08,02,08,17,18.10
2017,08,02,08,18,18.10
2017,08,02,08,19,18.20
2017,08,02,08,20,18.20
2017,08,02,08,21,18.30
2017,08,02,08,22,18.30
2017,08,02,08,23,18.40
2017,08,02,08,24,18.40
2017,08,02,08,25,18.50
2017,08,02,08,26,18.50
2017,08,02,08,27,18.60
2017,08,02,08,28,18.60
2017,08,02,08,29,18.70
2017,08,02,08,30,18.70
2017,08,02,08,31,18.80
2017,08,02,08,32,18.80
2017,08,02,08,33,18.90
2017,08,02,08,34,19.00
2017,08,02,08,35,19.00
2017,08,02,08,36,19.10
2017,08,02,08,37,19.20
2017,08,02,08,38,19.20
2017,08,02,08,39,19.30
2017,08,02,08,40,19.40
2017,08,02,08,41,19.50
2017,08,02,08,42,19.60
2017,08,02,08,43,19.60
2017,08,02,08,44,19.70
2017,08,02,08,45,19.80
2017,08,02,08,46,19.80
2017,08,02,08,47,19.90
2017,08,02,08,48,19.90
2017,08,02,08,49,20.00
2017,08,02,08,50,20.10
2017,08,02,08,51,20.10
2017,08,02,08,52,20.20
2017,08,02,08,53,20.20
2017,08,02,08,54,20.20
2017,08,02,08,55,20.30
2017,08,02,08,56,20.30
2017,08,02,08,57,20.40
2017,08,02,08,58,20.50
2017,08,02,08,59,20.60
2017,08,02,09,00,20.60
2017,08,02,09,01,20.70
2017,08,02,09,02,20.80
2017,08,02,09,03,20.80
2017,08,02,09,04,20.90
2017,08,02,09,05,21.00
2017,08,02,09,06,21.00
2017,08,02,09,07,21.10
2017,08,02,09,08,21.20
2017,08,02,09,09,21.30
2017,08,02,09,10,21.40
2017,08,02,09,11,21.40
2017,08,02,09,12,21.50
2017,08,02,09,13,21.60
2017,08,02,09,14,21.60
2017,08,02,09,15,21.70
2017,08,02,09,16,21.80
2017,08,02,09,17,21.80
2017,08,02,09,18,21.80
2017,08,02,09,19,21.90
2017,08,02,09,20,21.90
2017,08,02,09,21,22.00
2017,08,02,09,22,22.00
2017,08,02,09,23,22.10
2017,08,02,09,24,22.20
2017,08,02,09,25,22.30
2017,08,02,09,26,22.30
2017,08,02,09,27,22.40
2017,08,02,09,28,22.50
2017,08,02,09,29,22.60
2017,08,02,09,30,22.70
2017,08,02,09,31,22.70
2017,08,02,09,32,22.80
2017,08,02,09,33,22.80
2017,08,02,09,34,22.90
2017,08,02,09,35,23.00
2017,08,02,09,36,23.00
2017,08,02,09,37,23.10
2017,08,02,09,38,23.20
2017,08,02,09,39,23.20
2017,08,02,09,40,23.30
2017,08,02,09,41,23.30
2017,08,02,09,42,23.40
2017,08,02,09,43,23.50
2017,08,02,09,44,23.50
2017,08,02,09,45,23.60
2017,08,02,09,46,23.70
2017,08,02,09,47,23.70
2017,08,02,09,48,23.80
2017,08,02,09,49,23.80
2017,08,02,09,50,23.80
2017,08,02,09,51,23.90
2017,08,02,09,52,23.90
2017,08,02,09,53,23.90
2017,08,02,09,54,24.00
2017,08,02,09,55,24.00
2017,08,02,09,56,24.00
2017,08,02,09,57,24.10
2017,08,02,09,58,24.10
2017,08,02,09,59,24.10
2017,08,02,10,00,24.20
2017,08,02,10,01,24.20
2017,08,02,10,02,24.20
2017,08,02,10,03,24.20
2017,08,02,10,04,24.20
2017,08,02,10,05,24.20
2017,08,02,10,06,24.20
2017,08,02,10,07,24.20
2017,08,02,10,08,24.10
2017,08,02,10,09,24.10
2017,08,02,10,10,24.20
2017,08,02,10,11,24.20
2017,08,02,10,12,24.20
2017,08,02,10,13,24.20
2017,08,02,10,14,24.30
2017,08,02,10,15,24.30
2017,08,02,10,16,24.30
2017,08,02,10,17,24.30
2017,08,02,10,18,24.40
2017,08,02,10,19,24.40
2017,08,02,10,20,24.40
2017,08,02,10,21,24.40
2017,08,02,10,22,24.40
2017,08,02,10,23,24.40
2017,08,02,10,24,24.40
2017,08,02,10,25,24.40
2017,08,02,10,26,24.40
2017,08,02,10,27,24.40
2017,08,02,10,28,24.40
2017,08,02,10,29,24.40
2017,08,02,10,30,24.40
2017,08,02,10,31,24.40
2017,08,02,10,32,24.50
2017,08,02,10,33,24.50
2017,08,02,10,34,24.50
2017,08,02,10,35,24.50
2017,08,02,10,36,24.50
2017,08,02,10,37,24.50
2017,08,02,10,38,24.50
2017,08,02,10,39,24.50
2017,08,02,10,40,24.50
2017,08,02,10,41,24.50
2017,08,02,10,42,24.50
2017,08,02,10,43,24.50
2017,08,02,10,44,24.60
2017,08,02,10,45,24.60
2017,08,02,10,46,24.60
2017,08,02,10,47,24.70
2017,08,02,10,48,24.70
2017,08,02,10,49,24.70
2017,08,02,10,50,24.80
2017,08,02,10,51,24.80
2017,08,02,10,52,24.80
2017,08,02,10,53,24.80
2017,08,02,10,54,24.90
2017,08,02,10,55,24.90
2017,08,02,10,56,24.90
2017,08,02,10,57,24.90
2017,08,02,10,58,25.00
2017,08,02,10,59,25.00
2017,08,02,11,00,25.00
2017,08,02,11,01,25.00
2017,08,02,11,02,25.00
2017,08,02,11,03,25.10
2017,08,02,11,04,25.10
2017,08,02,11,05,25.20
2017,08,02,11,06,25.20
2017,08,02,11,07,25.20
2017,08,02,11,08,25.30
2017,08,02,11,09,25.30
2017,08,02,11,10,25.30
2017,08,02,11,11,25.30
2017,08,02,11,12,25.30
2017,08,02,11,13,25.40
2017,08,02,11,14,25.40
2017,08,02,11,15,25.50
2017,08,02,11,16,25.50
2017,08,02,11,17,25.50
2017,08,02,11,18,25.50
2017,08,02,11,19,25.50
2017,08,02,11,20,25.50
2017,08,02,11,21,25.60
2017,08,02,11,22,25.60
2017,08,02,11,23,25.60
2017,08,02,11,24,25.70
2017,08,02,11,25,25.70
2017,08,02,11,26,25.80
2017,08,02,11,27,25.80
2017,08,02,11,28,25.80
2017,08,02,11,29,25.90
2017,08,02,11,30,25.90
2017,08,02,11,31,25.90
2017,08,02,11,32,26.00
2017,08,02,11,33,26.00
2017,08,02,11,34,25.90
2017,08,02,11,35,25.90
2017,08,02,11,36,25.90
2017,08,02,11,37,25.80
2017,08,02,11,38,25.80
2017,08,02,11,39,25.80
2017,08,02,11,40,25.80
2017,08,02,11,41,25.80
2017,08,02,11,42,25.80
2017,08,02,11,43,25.80
2017,08,02,11,44,25.80
2017,08,02,11,45,25.80
2017,08,02,11,46,25.80
2017,08,02,11,47,25.80
2017,08,02,11,48,25.80
2017,08,02,11,49,25.90
2017,08,02,11,50,25.90
2017,08,02,11,51,26.00
2017,08,02,11,52,26.00
2017,08,02,11,53,26.00
2017,08,02,11,54,26.00
2017,08,02,11,55,26.00
2017,08,02,11,56,26.10
2017,08,02,11,57,26.10
2017,08,02,11,58,26.00
2017,08,02,11,59,26.00
2017,08,02,12,00,26.00
2017,08,02,12,01,26.00
2017,08,02,12,02,26.00
2017,08,02,12,03,26.00
2017,08,02,12,04,26.00
2017,08,02,12,05,26.00
2017,08,02,12,06,26.10
2017,08,02,12,07,26.10
2017,08,02,12,08,26.20
2017,08,02,12,09,26.20
2017,08,02,12,10,26.20
2017,08,02,12,11,26.20
2017,08,02,12,12,26.20
2017,08,02,12,13,26.20
2017,08,02,12,14,26.20
2017,08,02,12,15,26.20
2017,08,02,12,16,26.30
2017,08,02,12,17,26.30
2017,08,02,12,18,26.30
2017,08,02,12,19,26.30
2017,08,02,12,20,26.30
2017,08,02,12,21,26.30
2017,08,02,12,22,26.40
2017,08,02,12,23,26.40
2017,08,02,12,24,26.40
2017,08,02,12,25,26.40
2017,08,02,12,26,26.40
2017,08,02,12,27,26.40
2017,08,02,12,28,26.40
2017,08,02,12,29,26.40
2017,08,02,12,30,26.40
2017,08,02,12,31,26.50
2017,08,02,12,32,26.50
2017,08,02,12,33,26.50
2017,08,02,12,34,26.50
2017,08,02,12,35,26.40
2017,08,02,12,36,26.50
2017,08,02,12,37,26.50
2017,08,02,12,38,26.50
2017,08,02,12,39,26.60
2017,08,02,12,40,26.60
2017,08,02,12,41,26.60
2017,08,02,12,42,26.70
2017,08,02,12,43,26.70
2017,08,02,12,44,26.70
2017,08,02,12,45,26.70
2017,08,02,12,46,26.70
2017,08,02,12,47,26.70
2017,08,02,12,48,26.70
2017,08,02,12,49,26.70
2017,08,02,12,50,26.80
2017,08,02,12,51,26.80
2017,08,02,12,52,26.80
2017,08,02,12,53,26.90
2017,08,02,12,54,26.90
2017,08,02,12,55,26.90
2017,08,02,12,56,27.00
2017,08,02,12,57,27.10
2017,08,02,12,58,27.10
2017,08,02,12,59,27.10
2017,08,02,13,00,27.10
2017,08,02,13,01,27.10
2017,08,02,13,02,27.10
2017,08,02,13,03,27.10
2017,08,02,13,04,27.10
2017,08,02,13,05,27.20
2017,08,02,13,06,27.20
2017,08,02,13,07,27.30
2017,08,02,13,08,27.40
2017,08,02,13,09,27.50
2017,08,02,13,10,27.60
2017,08,02,13,11,27.60
2017,08,02,13,12,27.60
2017,08,02,13,13,27.70
2017,08,02,13,14,27.70
2017,08,02,13,15,27.70
2017,08,02,13,16,27.70
2017,08,02,13,17,27.70
2017,08,02,13,18,27.70
2017,08,02,13,19,27.70
2017,08,02,13,20,27.70
2017,08,02,13,21,27.80
2017,08,02,13,22,27.80
2017,08,02,13,23,27.80
2017,08,02,13,24,27.80
2017,08,02,13,25,27.80
2017,08,02,13,26,27.80
2017,08,02,13,27,27.90
2017,08,02,13,28,27.90
2017,08,02,13,29,28.00
2017,08,02,13,30,28.10
2017,08,02,13,31,28.10
2017,08,02,13,32,28.20
2017,08,02,13,33,28.20
2017,08,02,13,34,28.30
2017,08,02,13,35,28.30
2017,08,02,13,36,28.40
2017,08,02,13,37,28.50
2017,08,02,13,38,28.50
2017,08,02,13,39,28.60
2017,08,02,13,40,28.70
2017,08,02,13,41,28.70
2017,08,02,13,42,28.70
2017,08,02,13,43,28.80
2017,08,02,13,44,28.80
2017,08,02,13,45,28.80
2017,08,02,13,46,28.90
2017,08,02,13,47,29.00
2017,08,02,13,48,29.00
2017,08,02,13,49,29.00
2017,08,02,13,50,29.10
2017,08,02,13,51,29.10
2017,08,02,13,52,29.20
2017,08,02,13,53,29.30
2017,08,02,13,54,29.30
2017,08,02,13,55,29.40
2017,08,02,13,56,29.50
2017,08,02,13,57,29.60
2017,08,02,13,58,29.60
2017,08,02,13,59,29.70
2017,08,02,14,00,29.70
2017,08,02,14,01,29.80
2017,08,02,14,02,29.80
2017,08,02,14,03,29.80
2017,08,02,14,04,29.80
2017,08,02,14,05,29.80
2017,08,02,14,06,29.80
2017,08,02,14,07,29.80
2017,08,02,14,08,29.80
2017,08,02,14,09,29.80
2017,08,02,14,10,29.80
2017,08,02,14,11,29.90
2017,08,02,14,12,29.90
2017,08,02,14,13,29.90
2017,08,02,14,14,29.90
2017,08,02,14,15,29.80
2017,08,02,14,16,29.80
2017,08,02,14,17,29.80
2017,08,02,14,18,29.80
2017,08,02,14,19,29.80
2017,08,02,14,20,29.70
2017,08,02,14,21,29.70
2017,08,02,14,22,29.70
2017,08,02,14,23,29.70
2017,08,02,14,24,29.70
2017,08,02,14,25,29.70
2017,08,02,14,26,29.80
2017,08,02,14,27,29.80
2017,08,02,14,28,29.90
2017,08,02,14,29,29.90
2017,08,02,14,30,29.90
2017,08,02,14,31,30.00
2017,08,02,14,32,29.90
2017,08,02,14,33,29.90
2017,08,02,14,34,29.90
2017,08,02,14,35,30.00
2017,08,02,14,36,30.00
2017,08,02,14,37,30.00
2017,08,02,14,38,30.00
2017,08,02,14,39,30.00
2017,08,02,14,40,29.90
2017,08,02,14,41,29.90
2017,08,02,14,42,29.90
2017,08,02,14,43,29.80
2017,08,02,14,44,29.80
2017,08,02,14,45,29.80
2017,08,02,14,46,29.80
2017,08,02,14,47,29.80
2017,08,02,14,48,29.80
2017,08,02,14,49,29.80
2017,08,02,14,50,29.70
2017,08,02,14,51,29.70
2017,08,02,14,52,29.70
2017,08,02,14,53,29.70
2017,08,02,14,54,29.70
2017,08,02,14,55,29.70
2017,08,02,14,56,29.80
2017,08,02,14,57,29.80
2017,08,02,14,58,29.80
2017,08,02,14,59,29.90
2017,08,02,15,00,29.90
2017,08,02,15,01,29.90
2017,08,02,15,02,29.90
2017,08,02,15,03,29.90
2017,08,02,15,04,29.90
2017,08,02,15,05,30.00
2017,08,02,15,06,30.00
2017,08,02,15,07,30.00
2017,08,02,15,08,30.00
2017,08,02,15,09,29.90
2017,08,02,15,10,29.90
2017,08,02,15,11,29.80
2017,08,02,15,12,29.80
2017,08,02,15,13,29.80
2017,08,02,15,14,29.70
2017,08,02,15,15,29.70
2017,08,02,15,16,29.80
2017,08,02,15,17,29.80
2017,08,02,15,18,29.80
2017,08,02,15,19,29.80
2017,08,02,15,20,29.90
2017,08,02,15,21,29.90
2017,08,02,15,22,29.90
2017,08,02,15,23,30.00
2017,08,02,15,24,30.00
2017,08,02,15,25,30.00
2017,08,02,15,26,30.10
2017,08,02,15,27,30.10
2017,08,02,15,28,30.10
2017,08,02,15,29,30.20
2017,08,02,15,30,30.20
2017,08,02,15,31,30.20
2017,08,02,15,32,30.20
2017,08,02,15,33,30.20
2017,08,02,15,34,30.20
2017,08,02,15,35,30.10
2017,08,02,15,36,30.20
2017,08,02,15,37,30.20
2017,08,02,15,38,30.20
2017,08,02,15,39,30.20
2017,08,02,15,40,30.20
2017,08,02,15,41,30.20
2017,08,02,15,42,30.20
2017,08,02,15,43,30.20
2017,08,02,15,44,30.30
2017,08,02,15,45,30.30
2017,08,02,15,46,30.30
2017,08,02,15,47,30.40
2017,08,02,15,48,30.40
2017,08,02,15,49,30.40
2017,08,02,15,50,30.40
2017,08,02,15,51,30.40
2017,08,02,15,52,30.40
2017,08,02,15,53,30.40
2017,08,02,15,54,30.40
2017,08,02,15,55,30.50
2017,08,02,15,56,30.50
2017,08,02,15,57,30.50
2017,08,02,15,58,30.50
2017,08,02,15,59,30.50
2017,08,02,16,00,30.50
2017,08,02,16,01,30.60
2017,08,02,16,02,30.60
2017,08,02,16,03,30.60
2017,08,02,16,04,30.60
2017,08,02,16,05,30.60
2017,08,02,16,06,30.70
2017,08,02,16,07,30.70
2017,08,02,16,08,30.70
2017,08,02,16,09,30.80
2017,08,02,16,10,30.80
2017,08,02,16,11,30.80
2017,08,02,16,12,30.90
2017,08,02,16,13,30.90
2017,08,02,16,14,30.90
2017,08,02,16,15,31.00
2017,08,02,16,16,31.00
2017,08,02,16,17,31.10
2017,08,02,16,18,31.10
2017,08,02,16,19,31.10
2017,08,02,16,20,31.10
2017,08,02,16,21,31.20
2017,08,02,16,22,31.20
2017,08,02,16,23,31.20
2017,08,02,16,24,31.20
2017,08,02,16,25,31.20
2017,08,02,16,26,31.30
2017,08,02,16,27,31.30
2017,08,02,16,28,31.30
2017,08,02,16,29,31.30
2017,08,02,16,30,31.30
2017,08,02,16,31,31.30
2017,08,02,16,32,31.30
2017,08,02,16,33,31.30
2017,08,02,16,34,31.20
2017,08,02,16,35,31.20
2017,08,02,16,36,31.20
2017,08,02,16,37,31.20
2017,08,02,16,38,31.10
2017,08,02,16,39,31.10
2017,08,02,16,40,31.00
2017,08,02,16,41,31.00
2017,08,02,16,42,30.90
2017,08,02,16,43,30.80
2017,08,02,16,44,30.80
2017,08,02,16,45,30.80
2017,08,02,16,46,30.70
2017,08,02,16,47,30.60
2017,08,02,16,48,30.60
2017,08,02,16,49,30.60
2017,08,02,16,50,30.60
2017,08,02,16,51,30.60
2017,08,02,16,52,30.60
2017,08,02,16,53,30.70
2017,08,02,16,54,30.70
2017,08,02,16,55,30.70
2017,08,02,16,56,30.80
2017,08,02,16,57,30.80
2017,08,02,16,58,30.90
2017,08,02,16,59,30.90
2017,08,02,17,00,30.90
2017,08,02,17,01,30.90
2017,08,02,17,02,31.00
2017,08,02,17,03,31.00
2017,08,02,17,04,31.10
2017,08,02,17,05,31.10
2017,08,02,17,06,31.20
2017,08,02,17,07,31.20
2017,08,02,17,08,31.20
2017,08,02,17,09,31.20
2017,08,02,17,10,31.20
2017,08,02,17,11,31.20
2017,08,02,17,12,31.20
2017,08,02,17,13,31.20
2017,08,02,17,14,31.20
2017,08,02,17,15,31.20
2017,08,02,17,16,31.20
2017,08,02,17,17,31.20
2017,08,02,17,18,31.20
2017,08,02,17,19,31.20